Year,Month,Day,Hour,Minute,Value (Times are PST for insolation in W/m^2)
2010,02,26,00,00,0.00
2010,02,26,00,01,0.00
2010,02,26,00,02,0.00
2010,02,26,00,03,0.00
2010,02,26,00,04,0.00
2010,02,26,00,05,0.00
2010,02,26,00,06,0.00
2010,02,26,00,07,0.00
2010,02,26,00,08,0.00
2010,02,26,00,09,0.00
2010,02,26,00,10,0.00
2010,02,26,00,11,0.00
2010,02,26,00,12,0.00
2010,02,26,00,13,0.00
2010,02,26,00,14,0.00
2010,02,26,00,15,0.00
2010,02,26,00,16,0.00
2010,02,26,00,17,0.00
2010,02,26,00,18,0.00
2010,02,26,00,19,0.00
2010,02,26,00,20,0.00
2010,02,26,00,21,0.00
2010,02,26,00,22,0.00
2010,02,26,00,23,0.00
2010,02,26,00,24,0.00
2010,02,26,00,25,0.00
2010,02,26,00,26,0.00
2010,02,26,00,27,0.00
2010,02,26,00,28,0.00
2010,02,26,00,29,0.00
2010,02,26,00,30,0.00
2010,02,26,00,31,0.00
2010,02,26,00,32,0.00
2010,02,26,00,33,0.00
2010,02,26,00,34,0.00
2010,02,26,00,35,0.00
2010,02,26,00,36,0.00
2010,02,26,00,37,0.00
2010,02,26,00,38,0.00
2010,02,26,00,39,0.00
2010,02,26,00,40,0.00
2010,02,26,00,41,0.00
2010,02,26,00,42,0.00
2010,02,26,00,43,0.00
2010,02,26,00,44,0.00
2010,02,26,00,45,0.00
2010,02,26,00,46,0.00
2010,02,26,00,47,0.00
2010,02,26,00,48,0.00
2010,02,26,00,49,0.00
2010,02,26,00,50,0.00
2010,02,26,00,51,0.00
2010,02,26,00,52,0.00
2010,02,26,00,53,0.00
2010,02,26,00,54,0.00
2010,02,26,00,55,0.00
2010,02,26,00,56,0.00
2010,02,26,00,57,0.00
2010,02,26,00,58,0.00
2010,02,26,00,59,0.00
2010,02,26,01,00,0.00
2010,02,26,01,01,0.00
2010,02,26,01,02,0.00
2010,02,26,01,03,0.00
2010,02,26,01,04,0.00
2010,02,26,01,05,0.00
2010,02,26,01,06,0.00
2010,02,26,01,07,0.00
2010,02,26,01,08,0.00
2010,02,26,01,09,0.00
2010,02,26,01,10,0.00
2010,02,26,01,11,0.00
2010,02,26,01,12,0.00
2010,02,26,01,13,0.00
2010,02,26,01,14,0.00
2010,02,26,01,15,0.00
2010,02,26,01,16,0.00
2010,02,26,01,17,0.00
2010,02,26,01,18,0.00
2010,02,26,01,19,0.00
2010,02,26,01,20,0.00
2010,02,26,01,21,0.00
2010,02,26,01,22,0.00
2010,02,26,01,23,0.00
2010,02,26,01,24,0.00
2010,02,26,01,25,0.00
2010,02,26,01,26,0.00
2010,02,26,01,27,0.00
2010,02,26,01,28,0.00
2010,02,26,01,29,0.00
2010,02,26,01,30,0.00
2010,02,26,01,31,0.00
2010,02,26,01,32,0.00
2010,02,26,01,33,0.00
2010,02,26,01,34,0.00
2010,02,26,01,35,0.00
2010,02,26,01,36,0.00
2010,02,26,01,37,0.00
2010,02,26,01,38,0.00
2010,02,26,01,39,0.00
2010,02,26,01,40,0.00
2010,02,26,01,41,0.00
2010,02,26,01,42,0.00
2010,02,26,01,43,0.00
2010,02,26,01,44,0.00
2010,02,26,01,45,0.00
2010,02,26,01,46,0.00
2010,02,26,01,47,0.00
2010,02,26,01,48,0.00
2010,02,26,01,49,0.00
2010,02,26,01,50,0.00
2010,02,26,01,51,0.00
2010,02,26,01,52,0.00
2010,02,26,01,53,0.00
2010,02,26,01,54,0.00
2010,02,26,01,55,0.00
2010,02,26,01,56,0.00
2010,02,26,01,57,0.00
2010,02,26,01,58,0.00
2010,02,26,01,59,0.00
2010,02,26,02,00,0.00
2010,02,26,02,01,0.00
2010,02,26,02,02,0.00
2010,02,26,02,03,0.00
2010,02,26,02,04,0.00
2010,02,26,02,05,0.00
2010,02,26,02,06,0.00
2010,02,26,02,07,0.00
2010,02,26,02,08,0.00
2010,02,26,02,09,0.00
2010,02,26,02,10,0.00
2010,02,26,02,11,0.00
2010,02,26,02,12,0.00
2010,02,26,02,13,0.00
2010,02,26,02,14,0.00
2010,02,26,02,15,0.00
2010,02,26,02,16,0.00
2010,02,26,02,17,0.00
2010,02,26,02,18,0.00
2010,02,26,02,19,0.00
2010,02,26,02,20,0.00
2010,02,26,02,21,0.00
2010,02,26,02,22,0.00
2010,02,26,02,23,0.00
2010,02,26,02,24,0.00
2010,02,26,02,25,0.00
2010,02,26,02,26,0.00
2010,02,26,02,27,0.00
2010,02,26,02,28,0.00
2010,02,26,02,29,0.00
2010,02,26,02,30,0.00
2010,02,26,02,31,0.00
2010,02,26,02,32,0.00
2010,02,26,02,33,0.00
2010,02,26,02,34,0.00
2010,02,26,02,35,0.00
2010,02,26,02,36,0.00
2010,02,26,02,37,0.00
2010,02,26,02,38,0.00
2010,02,26,02,39,0.00
2010,02,26,02,40,0.00
2010,02,26,02,41,0.00
2010,02,26,02,42,0.00
2010,02,26,02,43,0.00
2010,02,26,02,44,0.00
2010,02,26,02,45,0.00
2010,02,26,02,46,0.00
2010,02,26,02,47,0.00
2010,02,26,02,48,0.00
2010,02,26,02,49,0.00
2010,02,26,02,50,0.00
2010,02,26,02,51,0.00
2010,02,26,02,52,0.00
2010,02,26,02,53,0.00
2010,02,26,02,54,0.00
2010,02,26,02,55,0.00
2010,02,26,02,56,0.00
2010,02,26,02,57,0.00
2010,02,26,02,58,0.00
2010,02,26,02,59,0.00
2010,02,26,03,00,0.00
2010,02,26,03,01,0.00
2010,02,26,03,02,0.00
2010,02,26,03,03,0.00
2010,02,26,03,04,0.00
2010,02,26,03,05,0.00
2010,02,26,03,06,0.00
2010,02,26,03,07,0.00
2010,02,26,03,08,0.00
2010,02,26,03,09,0.00
2010,02,26,03,10,0.00
2010,02,26,03,11,0.00
2010,02,26,03,12,0.00
2010,02,26,03,13,0.00
2010,02,26,03,14,0.00
2010,02,26,03,15,0.00
2010,02,26,03,16,0.00
2010,02,26,03,17,0.00
2010,02,26,03,18,0.00
2010,02,26,03,19,0.00
2010,02,26,03,20,0.00
2010,02,26,03,21,0.00
2010,02,26,03,22,0.00
2010,02,26,03,23,0.00
2010,02,26,03,24,0.00
2010,02,26,03,25,0.00
2010,02,26,03,26,0.00
2010,02,26,03,27,0.00
2010,02,26,03,28,0.00
2010,02,26,03,29,0.00
2010,02,26,03,30,0.00
2010,02,26,03,31,0.00
2010,02,26,03,32,0.00
2010,02,26,03,33,0.00
2010,02,26,03,34,0.00
2010,02,26,03,35,0.00
2010,02,26,03,36,0.00
2010,02,26,03,37,0.00
2010,02,26,03,38,0.00
2010,02,26,03,39,0.00
2010,02,26,03,40,0.00
2010,02,26,03,41,0.00
2010,02,26,03,42,0.00
2010,02,26,03,43,0.00
2010,02,26,03,44,0.00
2010,02,26,03,45,0.00
2010,02,26,03,46,0.00
2010,02,26,03,47,0.00
2010,02,26,03,48,0.00
2010,02,26,03,49,0.00
2010,02,26,03,50,0.00
2010,02,26,03,51,0.00
2010,02,26,03,52,0.00
2010,02,26,03,53,0.00
2010,02,26,03,54,0.00
2010,02,26,03,55,0.00
2010,02,26,03,56,0.00
2010,02,26,03,57,0.00
2010,02,26,03,58,0.00
2010,02,26,03,59,0.00
2010,02,26,04,00,0.00
2010,02,26,04,01,0.00
2010,02,26,04,02,0.00
2010,02,26,04,03,0.00
2010,02,26,04,04,0.00
2010,02,26,04,05,0.00
2010,02,26,04,06,0.00
2010,02,26,04,07,0.00
2010,02,26,04,08,0.00
2010,02,26,04,09,0.00
2010,02,26,04,10,0.00
2010,02,26,04,11,0.00
2010,02,26,04,12,0.00
2010,02,26,04,13,0.00
2010,02,26,04,14,0.00
2010,02,26,04,15,0.00
2010,02,26,04,16,0.00
2010,02,26,04,17,0.00
2010,02,26,04,18,0.00
2010,02,26,04,19,0.00
2010,02,26,04,20,0.00
2010,02,26,04,21,0.00
2010,02,26,04,22,0.00
2010,02,26,04,23,0.00
2010,02,26,04,24,0.00
2010,02,26,04,25,0.00
2010,02,26,04,26,0.00
2010,02,26,04,27,0.00
2010,02,26,04,28,0.00
2010,02,26,04,29,0.00
2010,02,26,04,30,0.00
2010,02,26,04,31,0.00
2010,02,26,04,32,0.00
2010,02,26,04,33,0.00
2010,02,26,04,34,0.00
2010,02,26,04,35,0.00
2010,02,26,04,36,0.00
2010,02,26,04,37,0.00
2010,02,26,04,38,0.00
2010,02,26,04,39,0.00
2010,02,26,04,40,0.00
2010,02,26,04,41,0.00
2010,02,26,04,42,0.00
2010,02,26,04,43,0.00
2010,02,26,04,44,0.00
2010,02,26,04,45,0.00
2010,02,26,04,46,0.00
2010,02,26,04,47,0.00
2010,02,26,04,48,0.00
2010,02,26,04,49,0.00
2010,02,26,04,50,0.00
2010,02,26,04,51,0.00
2010,02,26,04,52,0.00
2010,02,26,04,53,0.00
2010,02,26,04,54,0.00
2010,02,26,04,55,0.00
2010,02,26,04,56,0.00
2010,02,26,04,57,0.00
2010,02,26,04,58,0.00
2010,02,26,04,59,0.00
2010,02,26,05,00,0.00
2010,02,26,05,01,0.00
2010,02,26,05,02,0.00
2010,02,26,05,03,0.00
2010,02,26,05,04,0.00
2010,02,26,05,05,0.00
2010,02,26,05,06,0.00
2010,02,26,05,07,0.00
2010,02,26,05,08,0.00
2010,02,26,05,09,0.00
2010,02,26,05,10,0.00
2010,02,26,05,11,0.00
2010,02,26,05,12,0.00
2010,02,26,05,13,0.00
2010,02,26,05,14,0.00
2010,02,26,05,15,0.00
2010,02,26,05,16,0.00
2010,02,26,05,17,0.00
2010,02,26,05,18,0.00
2010,02,26,05,19,0.00
2010,02,26,05,20,0.00
2010,02,26,05,21,0.00
2010,02,26,05,22,0.00
2010,02,26,05,23,0.00
2010,02,26,05,24,0.00
2010,02,26,05,25,0.00
2010,02,26,05,26,0.00
2010,02,26,05,27,0.00
2010,02,26,05,28,0.00
2010,02,26,05,29,0.00
2010,02,26,05,30,0.00
2010,02,26,05,31,0.00
2010,02,26,05,32,0.00
2010,02,26,05,33,0.00
2010,02,26,05,34,0.00
2010,02,26,05,35,0.00
2010,02,26,05,36,0.00
2010,02,26,05,37,0.00
2010,02,26,05,38,0.00
2010,02,26,05,39,0.00
2010,02,26,05,40,0.00
2010,02,26,05,41,0.00
2010,02,26,05,42,0.00
2010,02,26,05,43,0.00
2010,02,26,05,44,0.00
2010,02,26,05,45,0.00
2010,02,26,05,46,0.00
2010,02,26,05,47,0.00
2010,02,26,05,48,0.00
2010,02,26,05,49,0.00
2010,02,26,05,50,0.00
2010,02,26,05,51,0.00
2010,02,26,05,52,0.00
2010,02,26,05,53,0.00
2010,02,26,05,54,0.00
2010,02,26,05,55,0.00
2010,02,26,05,56,0.00
2010,02,26,05,57,0.00
2010,02,26,05,58,0.00
2010,02,26,05,59,0.00
2010,02,26,06,00,0.00
2010,02,26,06,01,0.00
2010,02,26,06,02,0.00
2010,02,26,06,03,0.00
2010,02,26,06,04,0.00
2010,02,26,06,05,0.00
2010,02,26,06,06,0.00
2010,02,26,06,07,0.00
2010,02,26,06,08,0.00
2010,02,26,06,09,0.00
2010,02,26,06,10,0.00
2010,02,26,06,11,0.00
2010,02,26,06,12,0.00
2010,02,26,06,13,0.00
2010,02,26,06,14,0.00
2010,02,26,06,15,0.00
2010,02,26,06,16,0.00
2010,02,26,06,17,0.00
2010,02,26,06,18,0.00
2010,02,26,06,19,0.00
2010,02,26,06,20,0.00
2010,02,26,06,21,0.00
2010,02,26,06,22,0.00
2010,02,26,06,23,0.00
2010,02,26,06,24,0.00
2010,02,26,06,25,0.00
2010,02,26,06,26,0.00
2010,02,26,06,27,0.00
2010,02,26,06,28,0.00
2010,02,26,06,29,0.00
2010,02,26,06,30,0.00
2010,02,26,06,31,0.00
2010,02,26,06,32,0.00
2010,02,26,06,33,0.00
2010,02,26,06,34,0.00
2010,02,26,06,35,0.00
2010,02,26,06,36,0.00
2010,02,26,06,37,0.00
2010,02,26,06,38,0.00
2010,02,26,06,39,0.00
2010,02,26,06,40,0.00
2010,02,26,06,41,0.00
2010,02,26,06,42,0.00
2010,02,26,06,43,0.00
2010,02,26,06,44,0.00
2010,02,26,06,45,0.00
2010,02,26,06,46,0.00
2010,02,26,06,47,0.00
2010,02,26,06,48,0.00
2010,02,26,06,49,0.00
2010,02,26,06,50,0.00
2010,02,26,06,51,0.00
2010,02,26,06,52,0.00
2010,02,26,06,53,0.00
2010,02,26,06,54,0.00
2010,02,26,06,55,0.00
2010,02,26,06,56,0.00
2010,02,26,06,57,0.00
2010,02,26,06,58,0.00
2010,02,26,06,59,0.00
2010,02,26,07,00,0.00
2010,02,26,07,01,0.00
2010,02,26,07,02,0.00
2010,02,26,07,03,0.00
2010,02,26,07,04,0.00
2010,02,26,07,05,0.00
2010,02,26,07,06,0.00
2010,02,26,07,07,0.00
2010,02,26,07,08,0.00
2010,02,26,07,09,0.00
2010,02,26,07,10,0.00
2010,02,26,07,11,0.00
2010,02,26,07,12,0.00
2010,02,26,07,13,0.00
2010,02,26,07,14,0.00
2010,02,26,07,15,0.00
2010,02,26,07,16,0.00
2010,02,26,07,17,0.00
2010,02,26,07,18,0.00
2010,02,26,07,19,0.00
2010,02,26,07,20,0.00
2010,02,26,07,21,0.00
2010,02,26,07,22,0.00
2010,02,26,07,23,0.00
2010,02,26,07,24,0.00
2010,02,26,07,25,0.00
2010,02,26,07,26,0.00
2010,02,26,07,27,0.00
2010,02,26,07,28,0.00
2010,02,26,07,29,0.00
2010,02,26,07,30,0.00
2010,02,26,07,31,0.00
2010,02,26,07,32,0.00
2010,02,26,07,33,0.00
2010,02,26,07,34,0.00
2010,02,26,07,35,0.00
2010,02,26,07,36,0.00
2010,02,26,07,37,0.00
2010,02,26,07,38,0.00
2010,02,26,07,39,1.80
2010,02,26,07,40,3.00
2010,02,26,07,41,2.60
2010,02,26,07,42,5.00
2010,02,26,07,43,5.00
2010,02,26,07,44,5.00
2010,02,26,07,45,5.00
2010,02,26,07,46,5.00
2010,02,26,07,47,5.00
2010,02,26,07,48,5.30
2010,02,26,07,49,6.40
2010,02,26,07,50,5.70
2010,02,26,07,51,7.00
2010,02,26,07,52,7.00
2010,02,26,07,53,7.00
2010,02,26,07,54,7.00
2010,02,26,07,55,7.00
2010,02,26,07,56,8.60
2010,02,26,07,57,9.00
2010,02,26,07,58,9.00
2010,02,26,07,59,9.40
2010,02,26,08,00,11.00
2010,02,26,08,01,11.00
2010,02,26,08,02,11.00
2010,02,26,08,03,11.00
2010,02,26,08,04,11.00
2010,02,26,08,05,11.60
2010,02,26,08,06,12.00
2010,02,26,08,07,13.90
2010,02,26,08,08,14.00
2010,02,26,08,09,12.30
2010,02,26,08,10,14.40
2010,02,26,08,11,14.90
2010,02,26,08,12,12.70
2010,02,26,08,13,14.00
2010,02,26,08,14,13.10
2010,02,26,08,15,12.00
2010,02,26,08,16,12.00
2010,02,26,08,17,11.20
2010,02,26,08,18,11.90
2010,02,26,08,19,12.00
2010,02,26,08,20,11.10
2010,02,26,08,21,12.00
2010,02,26,08,22,11.80
2010,02,26,08,23,11.30
2010,02,26,08,24,12.00
2010,02,26,08,25,12.00
2010,02,26,08,26,12.00
2010,02,26,08,27,13.30
2010,02,26,08,28,14.00
2010,02,26,08,29,14.00
2010,02,26,08,30,14.00
2010,02,26,08,31,15.90
2010,02,26,08,32,16.20
2010,02,26,08,33,18.00
2010,02,26,08,34,18.00
2010,02,26,08,35,18.00
2010,02,26,08,36,18.00
2010,02,26,08,37,18.00
2010,02,26,08,38,18.00
2010,02,26,08,39,18.00
2010,02,26,08,40,18.00
2010,02,26,08,41,18.00
2010,02,26,08,42,18.10
2010,02,26,08,43,19.30
2010,02,26,08,44,21.00
2010,02,26,08,45,21.80
2010,02,26,08,46,22.20
2010,02,26,08,47,21.00
2010,02,26,08,48,21.00
2010,02,26,08,49,22.50
2010,02,26,08,50,24.60
2010,02,26,08,51,25.00
2010,02,26,08,52,23.30
2010,02,26,08,53,25.00
2010,02,26,08,54,24.70
2010,02,26,08,55,23.70
2010,02,26,08,56,26.00
2010,02,26,08,57,26.00
2010,02,26,08,58,27.80
2010,02,26,08,59,31.30
2010,02,26,09,00,32.00
2010,02,26,09,01,30.40
2010,02,26,09,02,32.40
2010,02,26,09,03,35.00
2010,02,26,09,04,37.10
2010,02,26,09,05,38.30
2010,02,26,09,06,35.00
2010,02,26,09,07,35.70
2010,02,26,09,08,35.10
2010,02,26,09,09,32.50
2010,02,26,09,10,32.50
2010,02,26,09,11,34.40
2010,02,26,09,12,36.60
2010,02,26,09,13,38.80
2010,02,26,09,14,39.00
2010,02,26,09,15,39.90
2010,02,26,09,16,39.00
2010,02,26,09,17,38.40
2010,02,26,09,18,37.00
2010,02,26,09,19,38.20
2010,02,26,09,20,41.10
2010,02,26,09,21,43.10
2010,02,26,09,22,46.10
2010,02,26,09,23,42.10
2010,02,26,09,24,37.20
2010,02,26,09,25,37.00
2010,02,26,09,26,36.90
2010,02,26,09,27,35.40
2010,02,26,09,28,37.90
2010,02,26,09,29,39.60
2010,02,26,09,30,39.00
2010,02,26,09,31,39.50
2010,02,26,09,32,41.30
2010,02,26,09,33,44.80
2010,02,26,09,34,48.10
2010,02,26,09,35,47.10
2010,02,26,09,36,47.00
2010,02,26,09,37,47.00
2010,02,26,09,38,46.80
2010,02,26,09,39,47.20
2010,02,26,09,40,51.70
2010,02,26,09,41,53.30
2010,02,26,09,42,54.00
2010,02,26,09,43,56.60
2010,02,26,09,44,59.30
2010,02,26,09,45,60.00
2010,02,26,09,46,56.80
2010,02,26,09,47,58.00
2010,02,26,09,48,56.10
2010,02,26,09,49,56.00
2010,02,26,09,50,56.50
2010,02,26,09,51,57.40
2010,02,26,09,52,56.80
2010,02,26,09,53,58.00
2010,02,26,09,54,56.70
2010,02,26,09,55,58.60
2010,02,26,09,56,61.70
2010,02,26,09,57,64.80
2010,02,26,09,58,65.00
2010,02,26,09,59,59.80
2010,02,26,10,00,55.70
2010,02,26,10,01,54.00
2010,02,26,10,02,54.00
2010,02,26,10,03,54.00
2010,02,26,10,04,54.90
2010,02,26,10,05,58.20
2010,02,26,10,06,61.50
2010,02,26,10,07,62.80
2010,02,26,10,08,63.00
2010,02,26,10,09,62.00
2010,02,26,10,10,60.20
2010,02,26,10,11,63.60
2010,02,26,10,12,66.50
2010,02,26,10,13,64.30
2010,02,26,10,14,64.90
2010,02,26,10,15,67.00
2010,02,26,10,16,64.20
2010,02,26,10,17,60.60
2010,02,26,10,18,60.00
2010,02,26,10,19,58.40
2010,02,26,10,20,58.00
2010,02,26,10,21,56.00
2010,02,26,10,22,56.00
2010,02,26,10,23,56.60
2010,02,26,10,24,58.00
2010,02,26,10,25,58.90
2010,02,26,10,26,61.60
2010,02,26,10,27,63.00
2010,02,26,10,28,64.30
2010,02,26,10,29,65.00
2010,02,26,10,30,63.40
2010,02,26,10,31,60.00
2010,02,26,10,32,57.80
2010,02,26,10,33,54.30
2010,02,26,10,34,56.60
2010,02,26,10,35,58.00
2010,02,26,10,36,59.80
2010,02,26,10,37,63.60
2010,02,26,10,38,66.10
2010,02,26,10,39,67.00
2010,02,26,10,40,67.00
2010,02,26,10,41,65.20
2010,02,26,10,42,63.20
2010,02,26,10,43,61.90
2010,02,26,10,44,59.60
2010,02,26,10,45,57.40
2010,02,26,10,46,57.40
2010,02,26,10,47,59.20
2010,02,26,10,48,59.10
2010,02,26,10,49,60.00
2010,02,26,10,50,58.60
2010,02,26,10,51,56.40
2010,02,26,10,52,56.00
2010,02,26,10,53,53.00
2010,02,26,10,54,47.20
2010,02,26,10,55,44.00
2010,02,26,10,56,43.40
2010,02,26,10,57,42.00
2010,02,26,10,58,41.20
2010,02,26,10,59,40.00
2010,02,26,11,00,41.30
2010,02,26,11,01,40.50
2010,02,26,11,02,40.00
2010,02,26,11,03,40.00
2010,02,26,11,04,40.00
2010,02,26,11,05,40.00
2010,02,26,11,06,40.00
2010,02,26,11,07,40.00
2010,02,26,11,08,39.70
2010,02,26,11,09,39.50
2010,02,26,11,10,42.10
2010,02,26,11,11,45.10
2010,02,26,11,12,46.00
2010,02,26,11,13,46.00
2010,02,26,11,14,46.90
2010,02,26,11,15,47.00
2010,02,26,11,16,43.90
2010,02,26,11,17,41.70
2010,02,26,11,18,40.50
2010,02,26,11,19,42.80
2010,02,26,11,20,43.10
2010,02,26,11,21,41.00
2010,02,26,11,22,40.00
2010,02,26,11,23,41.30
2010,02,26,11,24,42.00
2010,02,26,11,25,42.00
2010,02,26,11,26,42.00
2010,02,26,11,27,44.10
2010,02,26,11,28,46.20
2010,02,26,11,29,47.60
2010,02,26,11,30,50.60
2010,02,26,11,31,53.50
2010,02,26,11,32,53.50
2010,02,26,11,33,53.60
2010,02,26,11,34,56.60
2010,02,26,11,35,59.60
2010,02,26,11,36,61.90
2010,02,26,11,37,62.00
2010,02,26,11,38,60.00
2010,02,26,11,39,60.00
2010,02,26,11,40,59.00
2010,02,26,11,41,56.70
2010,02,26,11,42,56.10
2010,02,26,11,43,53.40
2010,02,26,11,44,51.70
2010,02,26,11,45,49.50
2010,02,26,11,46,49.00
2010,02,26,11,47,52.80
2010,02,26,11,48,53.90
2010,02,26,11,49,58.30
2010,02,26,11,50,63.60
2010,02,26,11,51,67.00
2010,02,26,11,52,67.00
2010,02,26,11,53,65.40
2010,02,26,11,54,65.20
2010,02,26,11,55,69.00
2010,02,26,11,56,71.50
2010,02,26,11,57,70.40
2010,02,26,11,58,69.10
2010,02,26,11,59,70.00
2010,02,26,12,00,69.90
2010,02,26,12,01,69.00
2010,02,26,12,02,68.10
2010,02,26,12,03,65.70
2010,02,26,12,04,67.00
2010,02,26,12,05,67.00
2010,02,26,12,06,68.70
2010,02,26,12,07,71.30
2010,02,26,12,08,72.00
2010,02,26,12,09,72.00
2010,02,26,12,10,72.00
2010,02,26,12,11,75.90
2010,02,26,12,12,78.60
2010,02,26,12,13,76.80
2010,02,26,12,14,76.30
2010,02,26,12,15,77.90
2010,02,26,12,16,80.10
2010,02,26,12,17,81.00
2010,02,26,12,18,82.40
2010,02,26,12,19,83.80
2010,02,26,12,20,83.10
2010,02,26,12,21,79.00
2010,02,26,12,22,77.00
2010,02,26,12,23,77.00
2010,02,26,12,24,77.00
2010,02,26,12,25,77.70
2010,02,26,12,26,80.90
2010,02,26,12,27,83.50
2010,02,26,12,28,83.40
2010,02,26,12,29,83.00
2010,02,26,12,30,83.80
2010,02,26,12,31,87.80
2010,02,26,12,32,90.00
2010,02,26,12,33,85.70
2010,02,26,12,34,81.00
2010,02,26,12,35,81.00
2010,02,26,12,36,81.70
2010,02,26,12,37,83.50
2010,02,26,12,38,83.50
2010,02,26,12,39,83.00
2010,02,26,12,40,83.70
2010,02,26,12,41,87.30
2010,02,26,12,42,94.60
2010,02,26,12,43,100.00
2010,02,26,12,44,97.70
2010,02,26,12,45,92.70
2010,02,26,12,46,91.60
2010,02,26,12,47,91.20
2010,02,26,12,48,85.20
2010,02,26,12,49,81.00
2010,02,26,12,50,82.30
2010,02,26,12,51,81.60
2010,02,26,12,52,84.80
2010,02,26,12,53,90.70
2010,02,26,12,54,93.00
2010,02,26,12,55,91.30
2010,02,26,12,56,95.30
2010,02,26,12,57,96.50
2010,02,26,12,58,95.00
2010,02,26,12,59,95.80
2010,02,26,13,00,98.70
2010,02,26,13,01,102.20
2010,02,26,13,02,104.80
2010,02,26,13,03,105.00
2010,02,26,13,04,105.00
2010,02,26,13,05,102.00
2010,02,26,13,06,100.10
2010,02,26,13,07,102.40
2010,02,26,13,08,105.00
2010,02,26,13,09,104.70
2010,02,26,13,10,104.00
2010,02,26,13,11,106.60
2010,02,26,13,12,109.00
2010,02,26,13,13,106.40
2010,02,26,13,14,100.90
2010,02,26,13,15,97.20
2010,02,26,13,16,95.00
2010,02,26,13,17,93.00
2010,02,26,13,18,93.00
2010,02,26,13,19,92.50
2010,02,26,13,20,91.70
2010,02,26,13,21,93.00
2010,02,26,13,22,92.00
2010,02,26,13,23,89.10
2010,02,26,13,24,86.50
2010,02,26,13,25,88.90
2010,02,26,13,26,92.80
2010,02,26,13,27,97.00
2010,02,26,13,28,98.20
2010,02,26,13,29,102.30
2010,02,26,13,30,103.00
2010,02,26,13,31,98.90
2010,02,26,13,32,98.20
2010,02,26,13,33,100.00
2010,02,26,13,34,96.70
2010,02,26,13,35,93.60
2010,02,26,13,36,93.00
2010,02,26,13,37,96.20
2010,02,26,13,38,99.70
2010,02,26,13,39,97.90
2010,02,26,13,40,97.00
2010,02,26,13,41,95.80
2010,02,26,13,42,91.10
2010,02,26,13,43,85.60
2010,02,26,13,44,81.00
2010,02,26,13,45,77.80
2010,02,26,13,46,77.00
2010,02,26,13,47,76.20
2010,02,26,13,48,74.40
2010,02,26,13,49,72.00
2010,02,26,13,50,69.90
2010,02,26,13,51,69.00
2010,02,26,13,52,69.20
2010,02,26,13,53,70.00
2010,02,26,13,54,69.60
2010,02,26,13,55,69.00
2010,02,26,13,56,67.70
2010,02,26,13,57,67.00
2010,02,26,13,58,64.00
2010,02,26,13,59,60.20
2010,02,26,14,00,56.00
2010,02,26,14,01,53.90
2010,02,26,14,02,53.20
2010,02,26,14,03,54.60
2010,02,26,14,04,56.70
2010,02,26,14,05,58.00
2010,02,26,14,06,59.10
2010,02,26,14,07,61.20
2010,02,26,14,08,62.00
2010,02,26,14,09,62.00
2010,02,26,14,10,62.00
2010,02,26,14,11,62.00
2010,02,26,14,12,63.00
2010,02,26,14,13,63.00
2010,02,26,14,14,63.60
2010,02,26,14,15,65.00
2010,02,26,14,16,65.00
2010,02,26,14,17,63.20
2010,02,26,14,18,59.40
2010,02,26,14,19,56.70
2010,02,26,14,20,56.00
2010,02,26,14,21,56.00
2010,02,26,14,22,54.00
2010,02,26,14,23,54.00
2010,02,26,14,24,53.80
2010,02,26,14,25,52.50
2010,02,26,14,26,49.80
2010,02,26,14,27,46.60
2010,02,26,14,28,46.00
2010,02,26,14,29,46.00
2010,02,26,14,30,46.00
2010,02,26,14,31,46.00
2010,02,26,14,32,46.80
2010,02,26,14,33,49.00
2010,02,26,14,34,51.00
2010,02,26,14,35,50.70
2010,02,26,14,36,49.00
2010,02,26,14,37,49.00
2010,02,26,14,38,49.90
2010,02,26,14,39,51.00
2010,02,26,14,40,51.00
2010,02,26,14,41,52.50
2010,02,26,14,42,53.80
2010,02,26,14,43,53.10
2010,02,26,14,44,53.00
2010,02,26,14,45,51.00
2010,02,26,14,46,50.60
2010,02,26,14,47,48.40
2010,02,26,14,48,47.00
2010,02,26,14,49,47.80
2010,02,26,14,50,49.00
2010,02,26,14,51,49.00
2010,02,26,14,52,49.00
2010,02,26,14,53,47.40
2010,02,26,14,54,46.10
2010,02,26,14,55,46.90
2010,02,26,14,56,45.90
2010,02,26,14,57,44.00
2010,02,26,14,58,44.60
2010,02,26,14,59,46.00
2010,02,26,15,00,46.00
2010,02,26,15,01,44.90
2010,02,26,15,02,42.90
2010,02,26,15,03,40.50
2010,02,26,15,04,40.00
2010,02,26,15,05,40.00
2010,02,26,15,06,39.00
2010,02,26,15,07,37.00
2010,02,26,15,08,36.70
2010,02,26,15,09,34.50
2010,02,26,15,10,33.00
2010,02,26,15,11,32.50
2010,02,26,15,12,30.90
2010,02,26,15,13,30.00
2010,02,26,15,14,28.50
2010,02,26,15,15,28.00
2010,02,26,15,16,28.00
2010,02,26,15,17,28.00
2010,02,26,15,18,28.00
2010,02,26,15,19,27.70
2010,02,26,15,20,26.00
2010,02,26,15,21,25.60
2010,02,26,15,22,25.00
2010,02,26,15,23,25.00
2010,02,26,15,24,25.00
2010,02,26,15,25,25.00
2010,02,26,15,26,25.00
2010,02,26,15,27,25.90
2010,02,26,15,28,26.00
2010,02,26,15,29,25.00
2010,02,26,15,30,25.00
2010,02,26,15,31,25.00
2010,02,26,15,32,25.00
2010,02,26,15,33,25.00
2010,02,26,15,34,25.00
2010,02,26,15,35,25.00
2010,02,26,15,36,25.00
2010,02,26,15,37,23.50
2010,02,26,15,38,23.00
2010,02,26,15,39,23.00
2010,02,26,15,40,21.00
2010,02,26,15,41,21.00
2010,02,26,15,42,21.00
2010,02,26,15,43,21.00
2010,02,26,15,44,21.00
2010,02,26,15,45,22.10
2010,02,26,15,46,23.00
2010,02,26,15,47,23.00
2010,02,26,15,48,23.00
2010,02,26,15,49,23.00
2010,02,26,15,50,23.00
2010,02,26,15,51,23.00
2010,02,26,15,52,23.00
2010,02,26,15,53,23.00
2010,02,26,15,54,23.00
2010,02,26,15,55,23.00
2010,02,26,15,56,23.00
2010,02,26,15,57,23.00
2010,02,26,15,58,23.00
2010,02,26,15,59,21.50
2010,02,26,16,00,21.00
2010,02,26,16,01,23.00
2010,02,26,16,02,23.00
2010,02,26,16,03,23.00
2010,02,26,16,04,23.00
2010,02,26,16,05,23.00
2010,02,26,16,06,23.00
2010,02,26,16,07,23.00
2010,02,26,16,08,23.00
2010,02,26,16,09,21.70
2010,02,26,16,10,21.00
2010,02,26,16,11,21.00
2010,02,26,16,12,21.00
2010,02,26,16,13,21.00
2010,02,26,16,14,20.70
2010,02,26,16,15,19.00
2010,02,26,16,16,19.00
2010,02,26,16,17,19.00
2010,02,26,16,18,19.00
2010,02,26,16,19,19.00
2010,02,26,16,20,19.00
2010,02,26,16,21,19.00
2010,02,26,16,22,20.60
2010,02,26,16,23,21.00
2010,02,26,16,24,20.90
2010,02,26,16,25,19.00
2010,02,26,16,26,19.00
2010,02,26,16,27,19.70
2010,02,26,16,28,21.00
2010,02,26,16,29,21.00
2010,02,26,16,30,21.00
2010,02,26,16,31,21.00
2010,02,26,16,32,19.40
2010,02,26,16,33,19.00
2010,02,26,16,34,18.00
2010,02,26,16,35,16.00
2010,02,26,16,36,16.00
2010,02,26,16,37,16.00
2010,02,26,16,38,15.30
2010,02,26,16,39,14.00
2010,02,26,16,40,14.00
2010,02,26,16,41,14.00
2010,02,26,16,42,12.70
2010,02,26,16,43,12.00
2010,02,26,16,44,12.00
2010,02,26,16,45,12.00
2010,02,26,16,46,12.00
2010,02,26,16,47,12.00
2010,02,26,16,48,11.80
2010,02,26,16,49,11.00
2010,02,26,16,50,11.00
2010,02,26,16,51,9.80
2010,02,26,16,52,9.00
2010,02,26,16,53,9.00
2010,02,26,16,54,9.00
2010,02,26,16,55,9.00
2010,02,26,16,56,9.00
2010,02,26,16,57,8.90
2010,02,26,16,58,7.00
2010,02,26,16,59,7.50
2010,02,26,17,00,9.00
2010,02,26,17,01,8.10
2010,02,26,17,02,7.00
2010,02,26,17,03,7.00
2010,02,26,17,04,7.00
2010,02,26,17,05,7.00
2010,02,26,17,06,7.00
2010,02,26,17,07,5.20
2010,02,26,17,08,5.00
2010,02,26,17,09,5.00
2010,02,26,17,10,5.00
2010,02,26,17,11,5.00
2010,02,26,17,12,5.00
2010,02,26,17,13,2.40
2010,02,26,17,14,0.00
2010,02,26,17,15,0.00
2010,02,26,17,16,0.00
2010,02,26,17,17,0.00
2010,02,26,17,18,0.00
2010,02,26,17,19,0.00
2010,02,26,17,20,0.00
2010,02,26,17,21,0.00
2010,02,26,17,22,0.00
2010,02,26,17,23,0.00
2010,02,26,17,24,0.00
2010,02,26,17,25,0.00
2010,02,26,17,26,0.00
2010,02,26,17,27,0.00
2010,02,26,17,28,0.00
2010,02,26,17,29,0.00
2010,02,26,17,30,0.00
2010,02,26,17,31,0.00
2010,02,26,17,32,0.00
2010,02,26,17,33,0.00
2010,02,26,17,34,0.00
2010,02,26,17,35,0.00
2010,02,26,17,36,0.00
2010,02,26,17,37,0.00
2010,02,26,17,38,0.00
2010,02,26,17,39,0.00
2010,02,26,17,40,0.00
2010,02,26,17,41,0.00